Lid_Strength_Index
2 3 3 2 2 2 2 2 2 2 2 2 2 2 3 3 3 3 2 2 1 1 0 0 0 1 2 6 6 1 1 1 2 3 4 5 6 7 8 7 7 7 7 7 6 7 7
3 3 3 3 2 3 3 2 2 2 2 2 3 3 3 3 3 3 2 2 2 1 1 1 1 1 4 9 3 1 3 3 3 4 5 4 6 6 7 8 8 6 7 7 6 6 6
3 3 3 3 3 3 3 3 3 3 3 3 3 3 3 4 3 2 2 2 1 1 1 1 1 3 6 7 2 2 3 3 3 4 5 4 4 6 6 8 6 7 8 7 7 6 7
4 3 3 3 3 3 3 3 3 3 3 3 3 4 4 3 3 2 2 2 1 1 2 2 2 4 8 4 1 3 3 4 3 3 3 3 4 5 6 6 7 9 8 10 8 7 7
4 4 4 4 3 3 3 3 3 3 3 3 4 4 3 3 2 2 2 2 2 2 2 3 4 5 8 3 5 4 3 5 4 4 3 4 4 6 6 9 10 9 12 10 9 7 7
4 4 4 4 4 4 4 3 3 3 3 4 4 3 3 2 2 2 3 3 3 3 3 4 5 7 7 7 5 4 3 4 5 5 6 5 6 8 8 9 13 12 11 10 10 8 8
4 5 5 4 4 4 4 4 4 4 4 4 4 3 2 2 2 2 3 5 6 7 6 9 9 10 8 6 5 5 4 5 5 7 9 7 9 10 9 8 9 10 11 11 9 7 9
5 5 5 4 4 4 4 4 4 4 4 4 4 3 2 2 2 2 3 6 7 6 9 8 7 7 7 6 8 7 4 7 8 10 9 9 10 8 9 9 9 9 10 10 9 8 9
6 5 5 5 4 4 4 4 4 4 5 4 4 3 3 3 3 3 5 6 4 5 9 8 7 7 7 6 8 8 6 7 9 10 9 10 9 8 9 9 10 10 11 11 11 9 9
6 5 5 5 5 5 5 5 5 5 5 4 4 3 3 3 5 4 6 5 4 4 11 11 9 7 7 7 9 6 5 7 8 10 9 10 8 9 10 10 9 12 9 10 10 11 14
6 6 5 5 6 5 5 5 5 5 4 4 4 3 3 4 5 6 6 5 4 6 17 11 9 5 8 8 8 7 5 7 10 10 10 11 10 10 11 10 9 11 9 10 11 12 12
6 6 6 6 6 6 5 5 5 5 4 4 4 4 4 5 4 6 5 4 5 11 19 12 10 11 11 10 9 8 7 6 7 10 9 10 8 9 10 9 9 9 10 10 10 11 16
6 6 6 6 6 6 5 5 5 5 5 4 4 4 5 6 7 6 4 6 12 14 12 13 12 11 12 12 11 11 11 12 12 14 13 11 11 9 9 11 9 10 11 15 16 17 17
6 6 7 6 6 6 5 5 5 5 5 5 5 5 6 8 6 5 6 11 15 15 14 11 12 12 14 12 12 13 12 13 12 13 13 14 15 11 9 10 11 11 11 14 18 17 15
6 7 7 7 6 6 6 5 5 5 5 5 5 4 6 8 5 5 9 13 13 13 12 13 12 14 14 13 13 13 14 14 14 13 15 15 15 10 10 10 10 12 12 10 13 12 15
7 7 7 7 7 6 6 5 5 5 5 5 5 6 7 8 5 7 11 13 13 12 12 12 14 14 15 14 14 14 15 15 15 13 12 13 17 12 11 10 9 11 10 14 13 18 18
7 8 7 7 8 7 7 6 6 6 5 6 5 9 7 7 6 9 13 12 13 12 11 13 13 14 14 14 14 14 15 15 14 14 12 13 14 15 12 13 14 13 14 13 14 15 17
8 8 8 8 8 8 8 7 7 6 6 7 7 11 8 6 10 10 12 12 13 13 12 12 12 13 14 14 14 14 14 15 13 14 16 14 15 18 16 12 11 12 15 15 19 19 17
9 9 9 9 8 8 8 8 7 7 7 7 9 9 7 8 13 13 14 15 14 14 15 14 15 14 14 14 16 15 14 13 13 15 16 15 17 20 18 15 13 15 14 13 13 13 17
9 9 9 9 9 9 9 9 9 8 9 8 10 12 11 11 12 13 14 15 17 15 16 16 16 15 15 16 14 16 15 14 14 15 13 14 16 18 20 18 15 17 15 13 13 16 15
9 9 10 9 9 9 9 9 9 10 10 9 11 13 14 14 14 14 14 15 17 18 16 15 17 16 17 18 17 18 16 16 15 13 14 14 18 16 15 14 14 14 13 13 14 13 16
9 10 10 9 9 9 9 10 10 10 11 11 13 14 13 16 16 15 17 17 17 18 17 18 17 17 17 18 17 19 17 17 17 14 15 14 17 15 16 13 12 14 12 12 12 13 13
9 10 9 9 9 9 10 10 10 11 11 12 13 13 13 17 17 17 17 18 18 17 17 16 16 17 17 16 14 14 13 13 13 14 15 14 14 15 17 13 13 16 13 12 12 11 13
9 9 9 9 9 9 9 10 10 10 11 11 13 13 15 19 17 18 18 18 18 17 17 16 15 16 14 12 12 12 13 13 12 12 11 13 13 13 15 14 20 13 10 11 12 11 12
9 9 9 9 9 9 9 9 9 10 10 12 12 13 15 19 17 18 18 18 17 15 16 16 15 13 11 13 16 17 16 15 14 12 11 10 11 14 16 16 13 12 12 13 14 14 12
8 9 9 9 9 9 8 9 9 9 10 11 12 12 13 17 19 16 17 16 17 16 17 15 13 11 12 14 16 19 19 17 16 14 9 9 9 13 14 18 19 14 11 9 11 16 12
8 8 8 9 9 8 8 9 9 9 9 10 12 11 13 17 16 15 16 16 14 15 16 15 15 14 12 15 17 17 17 14 16 15 14 13 12 14 15 16 14 13 11 9 17 17 12
8 8 8 9 9 8 8 8 9 9 9 10 12 11 12 15 15 13 13 14 14 14 16 15 15 14 14 16 16 15 15 13 13 12 13 14 14 15 14 16 18 11 11 15 14 12 12
8 8 8 9 9 8 8 8 9 9 9 9 12 10 9 12 13 11 11 11 11 11 12 13 14 14 12 14 13 12 13 11 12 15 11 14 13 14 13 13 11 11 12 11 11 13 13